Station,Date and time,DO,EC,Temp
ʶҹ��Ѵ������-�ҧ�С�,1/1/2022 0:00,5.0,645.4,25.3
ʶҹ��Ѵ������-�ҧ�С�,1/1/2022 0:30,5.0,640.2,25.3
ʶҹ��Ѵ������-�ҧ�С�,1/1/2022 1:00,5.1,638.5,25.2
ʶҹ��Ѵ������-�ҧ�С�,1/1/2022 1:30,5.1,638.5,25.1
ʶҹ��Ѵ������-�ҧ�С�,1/1/2022 2:00,5.1,641.1,25.1
ʶҹ��Ѵ������-�ҧ�С�,1/1/2022 2:30,5.0,635.4,25.1
ʶҹ��Ѵ������-�ҧ�С�,1/1/2022 3:00,5.0,643.2,25.0
ʶҹ��Ѵ������-�ҧ�С�,1/1/2022 3:30,5.0,641.7,25.1
ʶҹ��Ѵ������-�ҧ�С�,1/1/2022 4:00,5.0,646.3,25.0
ʶҹ��Ѵ������-�ҧ�С�,1/1/2022 4:30,5.0,657.5,25.0
ʶҹ��Ѵ������-�ҧ�С�,1/1/2022 5:00,4.9,666.7,25.0
ʶҹ��Ѵ������-�ҧ�С�,1/1/2022 5:30,4.9,685.4,24.9
ʶҹ��Ѵ������-�ҧ�С�,1/1/2022 6:00,4.9,704.9,24.9
ʶҹ��Ѵ������-�ҧ�С�,1/1/2022 6:30,4.9,755.2,24.9
ʶҹ��Ѵ������-�ҧ�С�,1/1/2022 7:00,4.9,825.8,24.8
ʶҹ��Ѵ������-�ҧ�С�,1/1/2022 7:30,4.8,918.6,25.0
ʶҹ��Ѵ������-�ҧ�С�,1/1/2022 8:00,4.7,1122.6,25.2
ʶҹ��Ѵ������-�ҧ�С�,1/1/2022 8:30,4.7,1377.3,25.2
ʶҹ��Ѵ������-�ҧ�С�,1/1/2022 9:00,4.7,1726.3,25.3
ʶҹ��Ѵ������-�ҧ�С�,1/1/2022 9:30,4.7,2147.7,25.4
ʶҹ��Ѵ������-�ҧ�С�,1/1/2022 10:00,4.7,2267.5,25.5
ʶҹ��Ѵ������-�ҧ�С�,1/1/2022 10:30,4.8,2553.0,25.7
ʶҹ��Ѵ������-�ҧ�С�,1/1/2022 11:00,4.8,2651.1,25.7
ʶҹ��Ѵ������-�ҧ�С�,1/1/2022 11:30,4.8,2701.3,25.8
ʶҹ��Ѵ������-�ҧ�С�,1/1/2022 12:00,4.8,2527.5,26.0
ʶҹ��Ѵ������-�ҧ�С�,1/1/2022 12:30,4.8,2452.6,26.3
ʶҹ��Ѵ������-�ҧ�С�,1/1/2022 13:00,4.7,2766.0,25.9
ʶҹ��Ѵ������-�ҧ�С�,1/1/2022 13:30,4.7,2596.2,26.0
ʶҹ��Ѵ������-�ҧ�С�,1/1/2022 14:00,4.6,2805.5,25.9
ʶҹ��Ѵ������-�ҧ�С�,1/1/2022 14:30,4.6,2910.4,25.9
ʶҹ��Ѵ������-�ҧ�С�,1/1/2022 15:00,4.6,3001.6,25.9
ʶҹ��Ѵ������-�ҧ�С�,1/1/2022 15:30,4.7,3194.6,25.9
ʶҹ��Ѵ������-�ҧ�С�,1/1/2022 16:00,4.8,2913.7,25.9
ʶҹ��Ѵ������-�ҧ�С�,1/1/2022 16:30,4.7,3351.3,25.7
ʶҹ��Ѵ������-�ҧ�С�,1/1/2022 17:00,4.8,3006.2,25.7
ʶҹ��Ѵ������-�ҧ�С�,1/1/2022 17:30,4.9,3065.3,25.6
ʶҹ��Ѵ������-�ҧ�С�,1/1/2022 18:00,5.1,2808.2,25.5
ʶҹ��Ѵ������-�ҧ�С�,1/1/2022 18:30,4.9,3169.7,25.4
ʶҹ��Ѵ������-�ҧ�С�,1/1/2022 19:00,4.9,2726.1,25.2
ʶҹ��Ѵ������-�ҧ�С�,1/1/2022 19:30,4.9,2094.7,25.2
ʶҹ��Ѵ������-�ҧ�С�,1/1/2022 20:00,5.0,1790.5,25.2
ʶҹ��Ѵ������-�ҧ�С�,1/1/2022 20:30,5.0,1496.0,25.2
ʶҹ��Ѵ������-�ҧ�С�,1/1/2022 21:00,5.0,1216.5,25.2
ʶҹ��Ѵ������-�ҧ�С�,1/1/2022 21:30,5.0,1014.0,25.1
ʶҹ��Ѵ������-�ҧ�С�,1/1/2022 22:00,5.0,848.8,25.1
ʶҹ��Ѵ������-�ҧ�С�,1/1/2022 22:30,5.0,788.5,25.1
ʶҹ��Ѵ������-�ҧ�С�,1/1/2022 23:00,5.0,758.3,25.1
ʶҹ��Ѵ������-�ҧ�С�,1/1/2022 23:30,5.1,736.1,25.2
ʶҹ��Ѵ������-�ҧ�С�,1/2/2022 0:00,5.1,690.9,25.1
ʶҹ��Ѵ������-�ҧ�С�,1/2/2022 0:30,5.1,704.7,25.1
ʶҹ��Ѵ������-�ҧ�С�,1/2/2022 1:00,5.2,699.4,25.0
ʶҹ��Ѵ������-�ҧ�С�,1/2/2022 1:30,5.2,693.5,25.0
ʶҹ��Ѵ������-�ҧ�С�,1/2/2022 2:00,5.2,685.4,25.0
ʶҹ��Ѵ������-�ҧ�С�,1/2/2022 2:30,5.2,675.7,25.0
ʶҹ��Ѵ������-�ҧ�С�,1/2/2022 3:00,5.2,685.9,24.9
ʶҹ��Ѵ������-�ҧ�С�,1/2/2022 3:30,5.2,682.6,24.9
ʶҹ��Ѵ������-�ҧ�С�,1/2/2022 4:00,5.1,680.4,24.9
ʶҹ��Ѵ������-�ҧ�С�,1/2/2022 4:30,5.1,694.4,24.8
ʶҹ��Ѵ������-�ҧ�С�,1/2/2022 5:00,5.1,704.6,24.8
ʶҹ��Ѵ������-�ҧ�С�,1/2/2022 5:30,5.0,713.5,24.8
ʶҹ��Ѵ������-�ҧ�С�,1/2/2022 6:00,5.0,726.4,24.8
ʶҹ��Ѵ������-�ҧ�С�,1/2/2022 6:30,4.9,767.1,24.8
ʶҹ��Ѵ������-�ҧ�С�,1/2/2022 7:00,5.0,840.1,24.7
ʶҹ��Ѵ������-�ҧ�С�,1/2/2022 7:30,4.8,928.4,24.9
ʶҹ��Ѵ������-�ҧ�С�,1/2/2022 8:00,4.7,1149.8,25.0
ʶҹ��Ѵ������-�ҧ�С�,1/2/2022 8:30,4.7,1628.7,25.1
ʶҹ��Ѵ������-�ҧ�С�,1/2/2022 9:00,4.6,2264.1,25.1
ʶҹ��Ѵ������-�ҧ�С�,1/2/2022 9:30,4.6,2974.8,25.2
ʶҹ��Ѵ������-�ҧ�С�,1/2/2022 10:00,4.6,3592.0,25.4
ʶҹ��Ѵ������-�ҧ�С�,1/2/2022 10:30,4.7,3789.1,25.5
ʶҹ��Ѵ������-�ҧ�С�,1/2/2022 11:00,4.7,4112.4,25.5
ʶҹ��Ѵ������-�ҧ�С�,1/2/2022 11:30,4.7,4095.7,25.6
ʶҹ��Ѵ������-�ҧ�С�,1/2/2022 12:00,4.7,4534.7,25.6
ʶҹ��Ѵ������-�ҧ�С�,1/2/2022 12:30,4.7,4368.2,25.6
ʶҹ��Ѵ������-�ҧ�С�,1/2/2022 13:00,4.6,4744.2,25.7
ʶҹ��Ѵ������-�ҧ�С�,1/2/2022 13:30,4.7,4327.0,25.8
ʶҹ��Ѵ������-�ҧ�С�,1/2/2022 14:00,4.7,4282.2,25.7
ʶҹ��Ѵ������-�ҧ�С�,1/2/2022 14:30,4.8,4251.5,25.6
ʶҹ��Ѵ������-�ҧ�С�,1/2/2022 15:00,4.7,4074.9,25.5
ʶҹ��Ѵ������-�ҧ�С�,1/2/2022 15:30,4.9,3768.3,25.7
ʶҹ��Ѵ������-�ҧ�С�,1/2/2022 16:00,4.9,3652.5,25.8
ʶҹ��Ѵ������-�ҧ�С�,1/2/2022 16:30,4.9,3543.3,25.7
ʶҹ��Ѵ������-�ҧ�С�,1/2/2022 17:00,5.0,3526.9,25.5
ʶҹ��Ѵ������-�ҧ�С�,1/2/2022 17:30,5.0,3539.4,25.4
ʶҹ��Ѵ������-�ҧ�С�,1/2/2022 18:00,5.0,3511.3,25.3
ʶҹ��Ѵ������-�ҧ�С�,1/2/2022 18:30,5.0,3704.4,25.1
ʶҹ��Ѵ������-�ҧ�С�,1/2/2022 19:00,5.1,3420.4,25.1
ʶҹ��Ѵ������-�ҧ�С�,1/2/2022 19:30,5.0,3308.5,25.0
ʶҹ��Ѵ������-�ҧ�С�,1/2/2022 20:00,5.0,3230.7,25.0
ʶҹ��Ѵ������-�ҧ�С�,1/2/2022 20:30,5.0,2856.7,24.9
ʶҹ��Ѵ������-�ҧ�С�,1/2/2022 21:00,4.8,2318.9,24.9
ʶҹ��Ѵ������-�ҧ�С�,1/2/2022 21:30,4.9,1850.2,24.9
ʶҹ��Ѵ������-�ҧ�С�,1/2/2022 22:00,5.0,1403.8,24.9
ʶҹ��Ѵ������-�ҧ�С�,1/2/2022 22:30,5.0,1072.1,24.9
ʶҹ��Ѵ������-�ҧ�С�,1/2/2022 23:00,5.0,973.0,24.9
ʶҹ��Ѵ������-�ҧ�С�,1/2/2022 23:30,5.1,861.4,24.9
ʶҹ��Ѵ������-�ҧ�С�,1/3/2022 0:00,5.1,840.0,24.9
ʶҹ��Ѵ������-�ҧ�С�,1/3/2022 0:30,5.1,792.1,24.9
ʶҹ��Ѵ������-�ҧ�С�,1/3/2022 1:00,5.1,766.5,24.9
ʶҹ��Ѵ������-�ҧ�С�,1/3/2022 1:30,5.1,739.3,24.8
ʶҹ��Ѵ������-�ҧ�С�,1/3/2022 2:00,5.2,741.9,24.8
ʶҹ��Ѵ������-�ҧ�С�,1/3/2022 2:30,5.3,728.9,24.8
ʶҹ��Ѵ������-�ҧ�С�,1/3/2022 3:00,5.3,711.8,24.7
ʶҹ��Ѵ������-�ҧ�С�,1/3/2022 3:30,5.4,681.3,24.8
ʶҹ��Ѵ������-�ҧ�С�,1/3/2022 4:00,5.3,694.4,24.7
ʶҹ��Ѵ������-�ҧ�С�,1/3/2022 4:30,5.4,690.8,24.7
ʶҹ��Ѵ������-�ҧ�С�,1/3/2022 5:00,5.3,699.5,24.7
ʶҹ��Ѵ������-�ҧ�С�,1/3/2022 5:30,5.2,722.9,24.7
ʶҹ��Ѵ������-�ҧ�С�,1/3/2022 6:00,5.1,741.2,24.7
ʶҹ��Ѵ������-�ҧ�С�,1/3/2022 6:30,5.0,760.8,24.7
ʶҹ��Ѵ������-�ҧ�С�,1/3/2022 7:00,5.0,787.0,24.7
ʶҹ��Ѵ������-�ҧ�С�,1/3/2022 7:30,4.8,852.5,24.8
ʶҹ��Ѵ������-�ҧ�С�,1/3/2022 8:00,4.7,947.6,25.1
ʶҹ��Ѵ������-�ҧ�С�,1/3/2022 8:30,4.7,1130.0,24.9
ʶҹ��Ѵ������-�ҧ�С�,1/3/2022 9:00,4.6,1630.4,24.8
ʶҹ��Ѵ������-�ҧ�С�,1/3/2022 9:30,4.6,2343.6,24.8
ʶҹ��Ѵ������-�ҧ�С�,1/3/2022 10:00,4.5,3178.5,25.0
ʶҹ��Ѵ������-�ҧ�С�,1/3/2022 10:30,4.4,3744.8,25.1
ʶҹ��Ѵ������-�ҧ�С�,1/3/2022 11:00,4.3,4301.5,25.3
ʶҹ��Ѵ������-�ҧ�С�,1/3/2022 11:30,4.4,4795.3,25.5
ʶҹ��Ѵ������-�ҧ�С�,1/3/2022 12:00,4.5,5342.4,25.7
ʶҹ��Ѵ������-�ҧ�С�,1/3/2022 12:30,4.5,5469.8,25.8
ʶҹ��Ѵ������-�ҧ�С�,1/3/2022 13:00,4.6,5748.2,25.8
ʶҹ��Ѵ������-�ҧ�С�,1/3/2022 13:30,4.5,5616.1,25.8
ʶҹ��Ѵ������-�ҧ�С�,1/3/2022 14:00,4.7,4631.7,26.1
ʶҹ��Ѵ������-�ҧ�С�,1/3/2022 14:30,4.5,5246.7,26.0
ʶҹ��Ѵ������-�ҧ�С�,1/3/2022 15:00,4.5,5361.7,25.8
ʶҹ��Ѵ������-�ҧ�С�,1/3/2022 15:30,4.5,5318.8,25.7
ʶҹ��Ѵ������-�ҧ�С�,1/3/2022 16:00,4.5,5206.9,25.8
ʶҹ��Ѵ������-�ҧ�С�,1/3/2022 16:30,4.6,4903.0,25.7
ʶҹ��Ѵ������-�ҧ�С�,1/3/2022 17:00,4.7,4667.1,25.7
ʶҹ��Ѵ������-�ҧ�С�,1/3/2022 17:30,4.7,4667.8,25.6
ʶҹ��Ѵ������-�ҧ�С�,1/3/2022 18:00,4.7,4886.2,25.3
ʶҹ��Ѵ������-�ҧ�С�,1/3/2022 18:30,4.7,4733.9,25.2
ʶҹ��Ѵ������-�ҧ�С�,1/3/2022 19:00,4.7,4804.4,25.1
ʶҹ��Ѵ������-�ҧ�С�,1/3/2022 19:30,4.8,4388.3,25.1
ʶҹ��Ѵ������-�ҧ�С�,1/3/2022 20:00,4.8,4361.5,25.1
ʶҹ��Ѵ������-�ҧ�С�,1/3/2022 20:30,4.8,4192.3,25.0
ʶҹ��Ѵ������-�ҧ�С�,1/3/2022 21:00,4.8,3869.6,24.9
ʶҹ��Ѵ������-�ҧ�С�,1/3/2022 21:30,4.7,3411.7,24.9
ʶҹ��Ѵ������-�ҧ�С�,1/3/2022 22:00,4.7,2855.6,24.8
ʶҹ��Ѵ������-�ҧ�С�,1/3/2022 22:30,4.8,2428.7,24.8
ʶҹ��Ѵ������-�ҧ�С�,1/3/2022 23:00,4.8,1762.5,24.9
ʶҹ��Ѵ������-�ҧ�С�,1/3/2022 23:30,4.8,1371.5,24.8
ʶҹ��Ѵ������-�ҧ�С�,1/4/2022 0:00,4.9,1218.0,24.9
ʶҹ��Ѵ������-�ҧ�С�,1/4/2022 0:30,4.9,1044.9,24.9
ʶҹ��Ѵ������-�ҧ�С�,1/4/2022 1:00,4.9,953.7,24.9
ʶҹ��Ѵ������-�ҧ�С�,1/4/2022 1:30,5.0,888.4,24.9
ʶҹ��Ѵ������-�ҧ�С�,1/4/2022 2:00,5.0,833.9,24.9
ʶҹ��Ѵ������-�ҧ�С�,1/4/2022 2:30,5.0,803.3,24.8
ʶҹ��Ѵ������-�ҧ�С�,1/4/2022 3:00,5.0,790.2,24.8
ʶҹ��Ѵ������-�ҧ�С�,1/4/2022 3:30,5.2,760.3,24.8
ʶҹ��Ѵ������-�ҧ�С�,1/4/2022 4:00,5.2,722.3,24.8
ʶҹ��Ѵ������-�ҧ�С�,1/4/2022 4:30,5.3,711.7,24.8
ʶҹ��Ѵ������-�ҧ�С�,1/4/2022 5:00,5.2,712.3,24.8
ʶҹ��Ѵ������-�ҧ�С�,1/4/2022 5:30,5.2,717.8,24.8
ʶҹ��Ѵ������-�ҧ�С�,1/4/2022 6:00,5.0,748.4,24.8
ʶҹ��Ѵ������-�ҧ�С�,1/4/2022 6:30,4.9,783.6,24.8
ʶҹ��Ѵ������-�ҧ�С�,1/4/2022 7:00,4.8,810.5,24.8
ʶҹ��Ѵ������-�ҧ�С�,1/4/2022 7:30,4.7,883.3,24.8
ʶҹ��Ѵ������-�ҧ�С�,1/4/2022 8:00,4.7,992.7,24.8
ʶҹ��Ѵ������-�ҧ�С�,1/4/2022 8:30,4.6,1174.6,25.0
ʶҹ��Ѵ������-�ҧ�С�,1/4/2022 9:00,4.4,1520.3,25.3
ʶҹ��Ѵ������-�ҧ�С�,1/4/2022 9:30,4.3,2234.7,25.4
ʶҹ��Ѵ������-�ҧ�С�,1/4/2022 10:00,4.3,2827.9,25.3
ʶҹ��Ѵ������-�ҧ�С�,1/4/2022 10:30,4.2,3677.4,25.1
ʶҹ��Ѵ������-�ҧ�С�,1/4/2022 11:00,4.2,4386.1,25.1
ʶҹ��Ѵ������-�ҧ�С�,1/4/2022 11:30,4.2,5227.2,25.2
ʶҹ��Ѵ������-�ҧ�С�,1/4/2022 12:00,4.2,5885.7,25.3
ʶҹ��Ѵ������-�ҧ�С�,1/4/2022 12:30,4.2,6237.3,25.6
ʶҹ��Ѵ������-�ҧ�С�,1/4/2022 13:00,4.2,6669.1,25.9
ʶҹ��Ѵ������-�ҧ�С�,1/4/2022 13:30,4.3,6883.1,25.9
ʶҹ��Ѵ������-�ҧ�С�,1/4/2022 14:00,4.2,7284.4,25.8
ʶҹ��Ѵ������-�ҧ�С�,1/4/2022 14:30,4.3,7045.0,25.9
ʶҹ��Ѵ������-�ҧ�С�,1/4/2022 15:00,4.3,6635.2,25.8
ʶҹ��Ѵ������-�ҧ�С�,1/4/2022 15:30,4.3,6808.3,25.8
ʶҹ��Ѵ������-�ҧ�С�,1/4/2022 16:00,4.3,6773.8,25.7
ʶҹ��Ѵ������-�ҧ�С�,1/4/2022 16:30,4.3,6458.4,25.7
ʶҹ��Ѵ������-�ҧ�С�,1/4/2022 17:00,4.4,6201.5,25.7
ʶҹ��Ѵ������-�ҧ�С�,1/4/2022 17:30,4.4,6177.7,25.5
ʶҹ��Ѵ������-�ҧ�С�,1/4/2022 18:00,4.4,6310.3,25.3
ʶҹ��Ѵ������-�ҧ�С�,1/4/2022 18:30,4.5,6008.8,25.2
ʶҹ��Ѵ������-�ҧ�С�,1/4/2022 19:00,4.5,6080.4,25.2
ʶҹ��Ѵ������-�ҧ�С�,1/4/2022 19:30,4.5,6140.7,25.1
ʶҹ��Ѵ������-�ҧ�С�,1/4/2022 20:00,4.6,5393.2,25.1
ʶҹ��Ѵ������-�ҧ�С�,1/4/2022 20:30,4.6,5119.9,25.1
ʶҹ��Ѵ������-�ҧ�С�,1/4/2022 21:00,4.6,5187.4,25.1
ʶҹ��Ѵ������-�ҧ�С�,1/4/2022 21:30,4.5,4723.6,24.9
ʶҹ��Ѵ������-�ҧ�С�,1/4/2022 22:00,4.5,4671.9,24.9
ʶҹ��Ѵ������-�ҧ�С�,1/4/2022 22:30,4.5,3850.6,24.9
ʶҹ��Ѵ������-�ҧ�С�,1/4/2022 23:00,4.5,3434.5,24.8
ʶҹ��Ѵ������-�ҧ�С�,1/4/2022 23:30,4.5,2829.4,24.8
ʶҹ��Ѵ������-�ҧ�С�,1/5/2022 0:00,4.6,2223.8,24.8
ʶҹ��Ѵ������-�ҧ�С�,1/5/2022 0:30,4.6,1972.7,24.8
ʶҹ��Ѵ������-�ҧ�С�,1/5/2022 1:00,4.6,1655.9,24.8
ʶҹ��Ѵ������-�ҧ�С�,1/5/2022 1:30,4.7,1522.3,24.8
ʶҹ��Ѵ������-�ҧ�С�,1/5/2022 2:00,4.7,1333.8,24.7
ʶҹ��Ѵ������-�ҧ�С�,1/5/2022 2:30,4.7,1127.1,24.7
ʶҹ��Ѵ������-�ҧ�С�,1/5/2022 3:00,4.8,1032.1,24.7
ʶҹ��Ѵ������-�ҧ�С�,1/5/2022 3:30,4.8,951.0,24.7
ʶҹ��Ѵ������-�ҧ�С�,1/5/2022 4:00,4.9,888.3,24.7
ʶҹ��Ѵ������-�ҧ�С�,1/5/2022 4:30,5.0,829.7,24.8
ʶҹ��Ѵ������-�ҧ�С�,1/5/2022 5:00,5.0,791.1,24.8
ʶҹ��Ѵ������-�ҧ�С�,1/5/2022 5:30,5.0,778.5,24.7
ʶҹ��Ѵ������-�ҧ�С�,1/5/2022 6:00,5.0,773.8,24.7
ʶҹ��Ѵ������-�ҧ�С�,1/5/2022 6:30,4.9,773.1,24.8
ʶҹ��Ѵ������-�ҧ�С�,1/5/2022 7:00,4.8,833.3,24.8
ʶҹ��Ѵ������-�ҧ�С�,1/5/2022 7:30,4.7,909.2,24.8
ʶҹ��Ѵ������-�ҧ�С�,1/5/2022 8:00,4.5,980.5,25.0
ʶҹ��Ѵ������-�ҧ�С�,1/5/2022 8:30,4.3,1188.0,25.5
ʶҹ��Ѵ������-�ҧ�С�,1/5/2022 9:00,4.2,1424.4,25.6
ʶҹ��Ѵ������-�ҧ�С�,1/5/2022 9:30,4.1,1724.0,25.8
ʶҹ��Ѵ������-�ҧ�С�,1/5/2022 10:00,4.1,2122.4,25.8
ʶҹ��Ѵ������-�ҧ�С�,1/5/2022 10:30,4.0,2779.8,25.9
ʶҹ��Ѵ������-�ҧ�С�,1/5/2022 11:00,4.0,3430.3,25.7
ʶҹ��Ѵ������-�ҧ�С�,1/5/2022 11:30,4.0,4263.2,25.7
ʶҹ��Ѵ������-�ҧ�С�,1/5/2022 12:00,3.9,4922.1,25.8
ʶҹ��Ѵ������-�ҧ�С�,1/5/2022 12:30,3.9,5355.5,25.9
ʶҹ��Ѵ������-�ҧ�С�,1/5/2022 13:00,4.0,5970.2,26.1
ʶҹ��Ѵ������-�ҧ�С�,1/5/2022 13:30,4.0,6154.2,26.2
ʶҹ��Ѵ������-�ҧ�С�,1/5/2022 14:00,4.0,6142.6,25.9
ʶҹ��Ѵ������-�ҧ�С�,1/5/2022 14:30,4.0,5629.6,26.3
ʶҹ��Ѵ������-�ҧ�С�,1/5/2022 15:00,4.3,5010.6,26.4
ʶҹ��Ѵ������-�ҧ�С�,1/5/2022 15:30,4.1,5415.6,26.3
ʶҹ��Ѵ������-�ҧ�С�,1/5/2022 16:00,4.0,5781.4,26.1
ʶҹ��Ѵ������-�ҧ�С�,1/5/2022 16:30,4.0,5562.4,26.0
ʶҹ��Ѵ������-�ҧ�С�,1/5/2022 17:00,4.0,5484.4,25.8
ʶҹ��Ѵ������-�ҧ�С�,1/5/2022 17:30,4.2,5211.0,25.8
ʶҹ��Ѵ������-�ҧ�С�,1/5/2022 18:00,4.2,5415.8,25.6
ʶҹ��Ѵ������-�ҧ�С�,1/5/2022 18:30,4.2,5205.9,25.5
ʶҹ��Ѵ������-�ҧ�С�,1/5/2022 19:00,4.3,4817.5,25.4
ʶҹ��Ѵ������-�ҧ�С�,1/5/2022 19:30,4.2,5085.5,25.4
ʶҹ��Ѵ������-�ҧ�С�,1/5/2022 20:00,4.3,4870.7,25.4
ʶҹ��Ѵ������-�ҧ�С�,1/5/2022 20:30,4.2,5035.1,25.3
ʶҹ��Ѵ������-�ҧ�С�,1/5/2022 21:00,4.2,5678.4,25.1
ʶҹ��Ѵ������-�ҧ�С�,1/5/2022 21:30,4.3,5061.2,25.1
ʶҹ��Ѵ������-�ҧ�С�,1/5/2022 22:00,4.4,4828.9,25.1
ʶҹ��Ѵ������-�ҧ�С�,1/5/2022 22:30,4.3,4734.2,25.0
ʶҹ��Ѵ������-�ҧ�С�,1/5/2022 23:00,4.3,4544.8,24.9
ʶҹ��Ѵ������-�ҧ�С�,1/5/2022 23:30,4.2,3839.1,24.9
ʶҹ��Ѵ������-�ҧ�С�,1/6/2022 0:00,4.2,3404.6,24.9
ʶҹ��Ѵ������-�ҧ�С�,1/6/2022 0:30,4.2,2757.4,24.9
ʶҹ��Ѵ������-�ҧ�С�,1/6/2022 1:00,4.3,2289.7,24.9
ʶҹ��Ѵ������-�ҧ�С�,1/6/2022 1:30,4.4,1869.5,24.9
ʶҹ��Ѵ������-�ҧ�С�,1/6/2022 2:00,4.4,1753.0,24.9
ʶҹ��Ѵ������-�ҧ�С�,1/6/2022 2:30,4.4,1486.5,24.9
ʶҹ��Ѵ������-�ҧ�С�,1/6/2022 3:00,4.5,1416.1,24.9
ʶҹ��Ѵ������-�ҧ�С�,1/6/2022 3:30,4.5,1220.9,24.8
ʶҹ��Ѵ������-�ҧ�С�,1/6/2022 4:00,4.6,1133.8,24.8
ʶҹ��Ѵ������-�ҧ�С�,1/6/2022 4:30,4.6,1046.6,24.8
ʶҹ��Ѵ������-�ҧ�С�,1/6/2022 5:00,4.6,1025.1,24.7
ʶҹ��Ѵ������-�ҧ�С�,1/6/2022 5:30,4.8,885.3,24.8
ʶҹ��Ѵ������-�ҧ�С�,1/6/2022 6:00,4.8,864.8,24.7
ʶҹ��Ѵ������-�ҧ�С�,1/6/2022 6:30,4.9,844.8,24.7
ʶҹ��Ѵ������-�ҧ�С�,1/6/2022 7:00,4.8,865.4,24.8
ʶҹ��Ѵ������-�ҧ�С�,1/6/2022 7:30,4.5,914.5,25.0
ʶҹ��Ѵ������-�ҧ�С�,1/6/2022 8:00,4.3,1031.7,25.5
ʶҹ��Ѵ������-�ҧ�С�,1/6/2022 8:30,4.2,1103.6,25.7
ʶҹ��Ѵ������-�ҧ�С�,1/6/2022 9:00,4.1,1252.2,25.8
ʶҹ��Ѵ������-�ҧ�С�,1/6/2022 9:30,4.0,1458.7,26.0
ʶҹ��Ѵ������-�ҧ�С�,1/6/2022 10:00,3.9,1687.5,25.9
ʶҹ��Ѵ������-�ҧ�С�,1/6/2022 10:30,3.8,2097.5,26.0
ʶҹ��Ѵ������-�ҧ�С�,1/6/2022 11:00,3.8,2612.1,25.9
ʶҹ��Ѵ������-�ҧ�С�,1/6/2022 11:30,3.7,3499.2,26.0
ʶҹ��Ѵ������-�ҧ�С�,1/6/2022 12:00,3.7,4132.8,26.0
ʶҹ��Ѵ������-�ҧ�С�,1/6/2022 12:30,3.7,4620.2,26.0
ʶҹ��Ѵ������-�ҧ�С�,1/6/2022 13:00,3.8,5039.7,26.1
ʶҹ��Ѵ������-�ҧ�С�,1/6/2022 13:30,3.8,5489.0,26.2
ʶҹ��Ѵ������-�ҧ�С�,1/6/2022 14:00,3.9,5663.0,26.3
ʶҹ��Ѵ������-�ҧ�С�,1/6/2022 14:30,3.9,5753.6,26.2
ʶҹ��Ѵ������-�ҧ�С�,1/6/2022 15:00,3.9,5179.7,26.3
ʶҹ��Ѵ������-�ҧ�С�,1/6/2022 15:30,4.1,4896.9,26.4
ʶҹ��Ѵ������-�ҧ�С�,1/6/2022 16:00,3.8,5588.1,26.0
ʶҹ��Ѵ������-�ҧ�С�,1/6/2022 16:30,3.8,5561.3,26.0
ʶҹ��Ѵ������-�ҧ�С�,1/6/2022 17:00,3.8,5171.5,25.9
ʶҹ��Ѵ������-�ҧ�С�,1/6/2022 17:30,3.9,4796.7,25.9
ʶҹ��Ѵ������-�ҧ�С�,1/6/2022 18:00,4.1,4513.5,25.6
ʶҹ��Ѵ������-�ҧ�С�,1/6/2022 18:30,4.1,4550.8,25.4
ʶҹ��Ѵ������-�ҧ�С�,1/6/2022 19:00,4.2,4327.0,25.3
ʶҹ��Ѵ������-�ҧ�С�,1/6/2022 19:30,4.3,4031.7,25.2
ʶҹ��Ѵ������-�ҧ�С�,1/6/2022 20:00,4.2,4234.5,25.2
ʶҹ��Ѵ������-�ҧ�С�,1/6/2022 20:30,4.1,4746.3,25.2
ʶҹ��Ѵ������-�ҧ�С�,1/6/2022 21:00,4.0,5636.5,25.1
ʶҹ��Ѵ������-�ҧ�С�,1/6/2022 21:30,4.1,5053.6,25.0
ʶҹ��Ѵ������-�ҧ�С�,1/6/2022 22:00,4.1,5505.0,25.0
ʶҹ��Ѵ������-�ҧ�С�,1/6/2022 22:30,4.1,5596.1,25.0
ʶҹ��Ѵ������-�ҧ�С�,1/6/2022 23:00,4.1,5690.9,24.9
ʶҹ��Ѵ������-�ҧ�С�,1/6/2022 23:30,4.2,5304.7,24.9
ʶҹ��Ѵ������-�ҧ�С�,1/7/2022 0:00,4.1,4993.1,24.9
ʶҹ��Ѵ������-�ҧ�С�,1/7/2022 0:30,4.0,4472.1,24.9
ʶҹ��Ѵ������-�ҧ�С�,1/7/2022 1:00,4.0,3800.0,24.9
ʶҹ��Ѵ������-�ҧ�С�,1/7/2022 1:30,4.0,3202.1,24.9
ʶҹ��Ѵ������-�ҧ�С�,1/7/2022 2:00,4.1,2741.9,24.9
ʶҹ��Ѵ������-�ҧ�С�,1/7/2022 2:30,4.1,2296.8,24.9
ʶҹ��Ѵ������-�ҧ�С�,1/7/2022 3:00,4.2,1972.8,24.8
ʶҹ��Ѵ������-�ҧ�С�,1/7/2022 3:30,4.3,1744.9,24.8
ʶҹ��Ѵ������-�ҧ�С�,1/7/2022 4:00,4.3,1650.2,24.8
ʶҹ��Ѵ������-�ҧ�С�,1/7/2022 4:30,4.4,1521.2,24.8
ʶҹ��Ѵ������-�ҧ�С�,1/7/2022 5:00,4.4,1428.0,24.8
ʶҹ��Ѵ������-�ҧ�С�,1/7/2022 5:30,4.5,1275.3,24.8
ʶҹ��Ѵ������-�ҧ�С�,1/7/2022 6:00,4.5,1151.9,24.8
ʶҹ��Ѵ������-�ҧ�С�,1/7/2022 6:30,4.5,1130.2,24.8
ʶҹ��Ѵ������-�ҧ�С�,1/7/2022 7:00,4.5,1123.0,24.7
ʶҹ��Ѵ������-�ҧ�С�,1/7/2022 7:30,4.4,1146.5,25.0
ʶҹ��Ѵ������-�ҧ�С�,1/7/2022 8:00,4.1,1255.8,25.5
ʶҹ��Ѵ������-�ҧ�С�,1/7/2022 8:30,4.0,1395.5,25.7
ʶҹ��Ѵ������-�ҧ�С�,1/7/2022 9:00,3.9,1526.8,25.9
ʶҹ��Ѵ������-�ҧ�С�,1/7/2022 9:30,3.8,1686.1,26.0
ʶҹ��Ѵ������-�ҧ�С�,1/7/2022 10:00,3.7,2087.0,25.9
ʶҹ��Ѵ������-�ҧ�С�,1/7/2022 10:30,3.6,2628.5,25.9
ʶҹ��Ѵ������-�ҧ�С�,1/7/2022 11:00,3.5,3335.2,25.9
ʶҹ��Ѵ������-�ҧ�С�,1/7/2022 11:30,3.6,4267.8,25.9
ʶҹ��Ѵ������-�ҧ�С�,1/7/2022 12:00,3.6,4979.7,25.9
ʶҹ��Ѵ������-�ҧ�С�,1/7/2022 12:30,3.6,5723.8,26.0
ʶҹ��Ѵ������-�ҧ�С�,1/7/2022 13:00,3.6,6697.6,26.1
ʶҹ��Ѵ������-�ҧ�С�,1/7/2022 13:30,3.6,7164.1,26.1
ʶҹ��Ѵ������-�ҧ�С�,1/7/2022 14:00,3.7,7414.8,26.3
ʶҹ��Ѵ������-�ҧ�С�,1/7/2022 14:30,3.7,7552.3,26.5
ʶҹ��Ѵ������-�ҧ�С�,1/7/2022 15:00,3.7,7383.6,26.3
ʶҹ��Ѵ������-�ҧ�С�,1/7/2022 15:30,3.9,6584.0,26.5
ʶҹ��Ѵ������-�ҧ�С�,1/7/2022 16:00,3.7,7313.0,26.1
ʶҹ��Ѵ������-�ҧ�С�,1/7/2022 16:30,3.7,7299.9,26.1
ʶҹ��Ѵ������-�ҧ�С�,1/7/2022 17:00,3.8,6825.2,26.1
ʶҹ��Ѵ������-�ҧ�С�,1/7/2022 17:30,3.9,6422.7,25.9
ʶҹ��Ѵ������-�ҧ�С�,1/7/2022 18:00,4.0,6115.8,25.8
ʶҹ��Ѵ������-�ҧ�С�,1/7/2022 18:30,4.0,6038.2,25.6
ʶҹ��Ѵ������-�ҧ�С�,1/7/2022 19:00,4.0,5937.3,25.5
ʶҹ��Ѵ������-�ҧ�С�,1/7/2022 19:30,4.0,5872.0,25.3
ʶҹ��Ѵ������-�ҧ�С�,1/7/2022 20:00,4.0,5532.5,25.3
ʶҹ��Ѵ������-�ҧ�С�,1/7/2022 20:30,4.0,5595.7,25.3
ʶҹ��Ѵ������-�ҧ�С�,1/7/2022 21:00,4.0,5618.1,25.2
ʶҹ��Ѵ������-�ҧ�С�,1/7/2022 21:30,3.9,6045.9,25.3
ʶҹ��Ѵ������-�ҧ�С�,1/7/2022 22:00,3.9,6009.7,25.2
ʶҹ��Ѵ������-�ҧ�С�,1/7/2022 22:30,3.9,6198.2,25.1
ʶҹ��Ѵ������-�ҧ�С�,1/7/2022 23:00,3.9,6589.4,25.1
ʶҹ��Ѵ������-�ҧ�С�,1/7/2022 23:30,4.0,6295.5,25.1
ʶҹ��Ѵ������-�ҧ�С�,1/8/2022 0:00,4.0,5960.2,25.1
ʶҹ��Ѵ������-�ҧ�С�,1/8/2022 0:30,4.1,5798.0,25.1
ʶҹ��Ѵ������-�ҧ�С�,1/8/2022 1:00,4.0,5418.9,25.1
ʶҹ��Ѵ������-�ҧ�С�,1/8/2022 1:30,4.0,5392.6,25.0
ʶҹ��Ѵ������-�ҧ�С�,1/8/2022 2:00,3.9,4661.3,25.0
ʶҹ��Ѵ������-�ҧ�С�,1/8/2022 2:30,3.9,4027.7,25.0
ʶҹ��Ѵ������-�ҧ�С�,1/8/2022 3:00,3.9,3688.9,25.0
ʶҹ��Ѵ������-�ҧ�С�,1/8/2022 3:30,3.9,3207.8,24.9
ʶҹ��Ѵ������-�ҧ�С�,1/8/2022 4:00,4.0,2580.5,25.0
ʶҹ��Ѵ������-�ҧ�С�,1/8/2022 4:30,4.1,2340.7,25.0
ʶҹ��Ѵ������-�ҧ�С�,1/8/2022 5:00,4.1,2140.2,24.9
ʶҹ��Ѵ������-�ҧ�С�,1/8/2022 5:30,4.1,1916.0,24.9
ʶҹ��Ѵ������-�ҧ�С�,1/8/2022 6:00,4.2,1744.3,24.9
ʶҹ��Ѵ������-�ҧ�С�,1/8/2022 6:30,4.2,1665.4,24.9
ʶҹ��Ѵ������-�ҧ�С�,1/8/2022 7:00,4.3,1627.9,24.9
ʶҹ��Ѵ������-�ҧ�С�,1/8/2022 7:30,4.2,1601.4,25.1
ʶҹ��Ѵ������-�ҧ�С�,1/8/2022 8:00,4.0,1672.1,25.5
ʶҹ��Ѵ������-�ҧ�С�,1/8/2022 8:30,3.8,1843.3,25.7
ʶҹ��Ѵ������-�ҧ�С�,1/8/2022 9:00,3.7,2081.9,25.9
ʶҹ��Ѵ������-�ҧ�С�,1/8/2022 9:30,3.6,2401.2,25.9
ʶҹ��Ѵ������-�ҧ�С�,1/8/2022 10:00,3.5,2912.7,26.0
ʶҹ��Ѵ������-�ҧ�С�,1/8/2022 10:30,3.5,3660.7,26.0
ʶҹ��Ѵ������-�ҧ�С�,1/8/2022 11:00,3.5,4324.7,26.1
ʶҹ��Ѵ������-�ҧ�С�,1/8/2022 11:30,3.5,5243.1,26.1
ʶҹ��Ѵ������-�ҧ�С�,1/8/2022 12:00,3.5,5906.3,26.2
ʶҹ��Ѵ������-�ҧ�С�,1/8/2022 12:30,3.5,6692.2,26.1
ʶҹ��Ѵ������-�ҧ�С�,1/8/2022 13:00,3.6,7647.9,26.2
ʶҹ��Ѵ������-�ҧ�С�,1/8/2022 13:30,3.6,8287.5,26.2
ʶҹ��Ѵ������-�ҧ�С�,1/8/2022 14:00,3.7,8421.4,26.5
ʶҹ��Ѵ������-�ҧ�С�,1/8/2022 14:30,3.8,8603.9,26.5
ʶҹ��Ѵ������-�ҧ�С�,1/8/2022 15:00,3.7,8490.2,26.3
ʶҹ��Ѵ������-�ҧ�С�,1/8/2022 15:30,4.0,7234.0,26.6
ʶҹ��Ѵ������-�ҧ�С�,1/8/2022 16:00,3.7,8131.0,26.3
ʶҹ��Ѵ������-�ҧ�С�,1/8/2022 16:30,3.7,7951.4,26.3
ʶҹ��Ѵ������-�ҧ�С�,1/8/2022 17:00,3.8,7582.7,26.2
ʶҹ��Ѵ������-�ҧ�С�,1/8/2022 17:30,3.8,7125.8,26.0
ʶҹ��Ѵ������-�ҧ�С�,1/8/2022 18:00,3.8,6801.2,25.7
ʶҹ��Ѵ������-�ҧ�С�,1/8/2022 18:30,3.9,6486.1,25.5
ʶҹ��Ѵ������-�ҧ�С�,1/8/2022 19:00,3.9,6017.6,25.4
ʶҹ��Ѵ������-�ҧ�С�,1/8/2022 19:30,3.9,5864.6,25.4
ʶҹ��Ѵ������-�ҧ�С�,1/8/2022 20:00,3.9,5620.7,25.4
ʶҹ��Ѵ������-�ҧ�С�,1/8/2022 20:30,3.9,5294.6,25.3
ʶҹ��Ѵ������-�ҧ�С�,1/8/2022 21:00,3.8,5273.6,25.3
ʶҹ��Ѵ������-�ҧ�С�,1/8/2022 21:30,3.8,5034.4,25.3
ʶҹ��Ѵ������-�ҧ�С�,1/8/2022 22:00,3.8,5665.0,25.3
ʶҹ��Ѵ������-�ҧ�С�,1/8/2022 22:30,3.9,5637.2,25.2
ʶҹ��Ѵ������-�ҧ�С�,1/8/2022 23:00,3.8,5333.5,25.2
ʶҹ��Ѵ������-�ҧ�С�,1/8/2022 23:30,3.8,5284.1,25.2
ʶҹ��Ѵ������-�ҧ�С�,1/9/2022 0:00,3.8,5245.5,25.2
ʶҹ��Ѵ������-�ҧ�С�,1/9/2022 0:30,3.9,5094.5,25.2
ʶҹ��Ѵ������-�ҧ�С�,1/9/2022 1:00,3.9,5233.1,25.2
ʶҹ��Ѵ������-�ҧ�С�,1/9/2022 1:30,3.9,5082.1,25.1
ʶҹ��Ѵ������-�ҧ�С�,1/9/2022 2:00,3.9,4406.7,25.1
ʶҹ��Ѵ������-�ҧ�С�,1/9/2022 2:30,3.8,4418.0,25.1
ʶҹ��Ѵ������-�ҧ�С�,1/9/2022 3:00,3.9,3807.3,25.1
ʶҹ��Ѵ������-�ҧ�С�,1/9/2022 3:30,3.9,3489.7,25.0
ʶҹ��Ѵ������-�ҧ�С�,1/9/2022 4:00,4.0,3165.2,25.0
ʶҹ��Ѵ������-�ҧ�С�,1/9/2022 4:30,4.0,2722.7,25.0
ʶҹ��Ѵ������-�ҧ�С�,1/9/2022 5:00,4.0,2392.6,24.9
ʶҹ��Ѵ������-�ҧ�С�,1/9/2022 5:30,4.1,2246.8,24.9
ʶҹ��Ѵ������-�ҧ�С�,1/9/2022 6:00,4.1,2013.5,25.0
ʶҹ��Ѵ������-�ҧ�С�,1/9/2022 6:30,4.2,1803.4,24.9
ʶҹ��Ѵ������-�ҧ�С�,1/9/2022 7:00,4.2,1781.3,24.9
ʶҹ��Ѵ������-�ҧ�С�,1/9/2022 7:30,4.2,1756.7,25.1
ʶҹ��Ѵ������-�ҧ�С�,1/9/2022 8:00,4.1,1648.3,25.6
ʶҹ��Ѵ������-�ҧ�С�,1/9/2022 8:30,3.8,1827.9,25.9
ʶҹ��Ѵ������-�ҧ�С�,1/9/2022 9:00,3.7,1988.8,26.1
ʶҹ��Ѵ������-�ҧ�С�,1/9/2022 9:30,3.6,2274.6,26.1
ʶҹ��Ѵ������-�ҧ�С�,1/9/2022 10:00,3.6,2631.3,26.2
ʶҹ��Ѵ������-�ҧ�С�,1/9/2022 10:30,3.5,3182.0,26.2
ʶҹ��Ѵ������-�ҧ�С�,1/9/2022 11:00,3.5,3643.6,26.2
ʶҹ��Ѵ������-�ҧ�С�,1/9/2022 11:30,3.5,4278.6,26.2
ʶҹ��Ѵ������-�ҧ�С�,1/9/2022 12:00,3.5,5000.3,26.3
ʶҹ��Ѵ������-�ҧ�С�,1/9/2022 12:30,3.4,5740.4,26.4
ʶҹ��Ѵ������-�ҧ�С�,1/9/2022 13:00,3.5,6685.6,26.4
ʶҹ��Ѵ������-�ҧ�С�,1/9/2022 13:30,3.5,7109.8,26.4
ʶҹ��Ѵ������-�ҧ�С�,1/9/2022 14:00,3.5,7459.7,26.6
ʶҹ��Ѵ������-�ҧ�С�,1/9/2022 14:30,3.7,7765.7,26.6
ʶҹ��Ѵ������-�ҧ�С�,1/9/2022 15:00,3.6,7304.3,26.6
ʶҹ��Ѵ������-�ҧ�С�,1/9/2022 15:30,3.6,7251.3,26.6
ʶҹ��Ѵ������-�ҧ�С�,1/9/2022 16:00,3.6,7400.4,26.5
ʶҹ��Ѵ������-�ҧ�С�,1/9/2022 16:30,3.6,7241.0,26.4
ʶҹ��Ѵ������-�ҧ�С�,1/9/2022 17:00,3.6,6920.0,26.3
ʶҹ��Ѵ������-�ҧ�С�,1/9/2022 17:30,3.6,6652.6,26.2
ʶҹ��Ѵ������-�ҧ�С�,1/9/2022 18:00,3.6,6314.6,25.8
ʶҹ��Ѵ������-�ҧ�С�,1/9/2022 18:30,3.7,5909.4,25.6
ʶҹ��Ѵ������-�ҧ�С�,1/9/2022 19:00,3.7,5434.4,25.6
ʶҹ��Ѵ������-�ҧ�С�,1/9/2022 19:30,3.8,4808.2,25.5
ʶҹ��Ѵ������-�ҧ�С�,1/9/2022 20:00,3.7,4481.3,25.6
ʶҹ��Ѵ������-�ҧ�С�,1/9/2022 20:30,3.9,4168.4,25.5
ʶҹ��Ѵ������-�ҧ�С�,1/9/2022 21:00,3.9,4002.2,25.5
ʶҹ��Ѵ������-�ҧ�С�,1/9/2022 21:30,3.8,3930.4,25.5
ʶҹ��Ѵ������-�ҧ�С�,1/9/2022 22:00,3.9,3824.7,25.5
ʶҹ��Ѵ������-�ҧ�С�,1/9/2022 22:30,3.9,3777.1,25.4
ʶҹ��Ѵ������-�ҧ�С�,1/9/2022 23:00,3.9,3767.8,25.4
ʶҹ��Ѵ������-�ҧ�С�,1/9/2022 23:30,3.8,3913.7,25.4
ʶҹ��Ѵ������-�ҧ�С�,1/10/2022 0:00,3.8,3963.3,25.3
ʶҹ��Ѵ������-�ҧ�С�,1/10/2022 0:30,3.9,4063.9,25.3
ʶҹ��Ѵ������-�ҧ�С�,1/10/2022 1:00,3.9,3952.8,25.2
ʶҹ��Ѵ������-�ҧ�С�,1/10/2022 1:30,3.9,3988.7,25.2
ʶҹ��Ѵ������-�ҧ�С�,1/10/2022 2:00,3.9,3933.2,25.1
ʶҹ��Ѵ������-�ҧ�С�,1/10/2022 2:30,4.0,3597.3,25.2
ʶҹ��Ѵ������-�ҧ�С�,1/10/2022 3:00,3.9,3310.8,25.2
ʶҹ��Ѵ������-�ҧ�С�,1/10/2022 3:30,4.0,3082.6,25.1
ʶҹ��Ѵ������-�ҧ�С�,1/10/2022 4:00,4.0,2903.7,25.1
ʶҹ��Ѵ������-�ҧ�С�,1/10/2022 4:30,4.0,2618.3,25.0
ʶҹ��Ѵ������-�ҧ�С�,1/10/2022 5:00,4.1,2504.5,25.0
ʶҹ��Ѵ������-�ҧ�С�,1/10/2022 5:30,4.1,2304.6,25.0
ʶҹ��Ѵ������-�ҧ�С�,1/10/2022 6:00,4.2,2055.6,25.0
ʶҹ��Ѵ������-�ҧ�С�,1/10/2022 6:30,4.5,1944.2,24.8
ʶҹ��Ѵ������-�ҧ�С�,1/10/2022 7:00,4.3,1907.4,24.9
ʶҹ��Ѵ������-�ҧ�С�,1/10/2022 7:30,4.3,1781.8,25.1
ʶҹ��Ѵ������-�ҧ�С�,1/10/2022 8:00,4.2,1783.5,25.7
ʶҹ��Ѵ������-�ҧ�С�,1/10/2022 8:30,3.9,1968.1,25.9
ʶҹ��Ѵ������-�ҧ�С�,1/10/2022 9:00,3.8,2126.6,26.1
ʶҹ��Ѵ������-�ҧ�С�,1/10/2022 9:30,3.7,2444.1,26.3
ʶҹ��Ѵ������-�ҧ�С�,1/10/2022 10:00,3.6,2733.1,26.3
ʶҹ��Ѵ������-�ҧ�С�,1/10/2022 10:30,3.6,3029.3,26.5
ʶҹ��Ѵ������-�ҧ�С�,1/10/2022 11:00,3.5,3780.0,26.4
ʶҹ��Ѵ������-�ҧ�С�,1/10/2022 11:30,3.5,4426.4,26.4
ʶҹ��Ѵ������-�ҧ�С�,1/10/2022 12:00,3.4,4983.2,26.5
ʶҹ��Ѵ������-�ҧ�С�,1/10/2022 12:30,3.5,5407.2,26.6
ʶҹ��Ѵ������-�ҧ�С�,1/10/2022 13:00,3.5,6018.3,26.6
ʶҹ��Ѵ������-�ҧ�С�,1/10/2022 13:30,3.5,7018.1,26.5
ʶҹ��Ѵ������-�ҧ�С�,1/10/2022 14:00,3.5,7274.1,26.7
ʶҹ��Ѵ������-�ҧ�С�,1/10/2022 14:30,3.6,7672.4,26.7
ʶҹ��Ѵ������-�ҧ�С�,1/10/2022 15:00,3.6,7525.2,26.7
ʶҹ��Ѵ������-�ҧ�С�,1/10/2022 15:30,3.6,7429.3,26.6
ʶҹ��Ѵ������-�ҧ�С�,1/10/2022 16:00,3.5,7362.7,26.6
ʶҹ��Ѵ������-�ҧ�С�,1/10/2022 16:30,3.6,7180.7,26.5
ʶҹ��Ѵ������-�ҧ�С�,1/10/2022 17:00,3.6,6884.6,26.5
ʶҹ��Ѵ������-�ҧ�С�,1/10/2022 17:30,3.6,6410.7,26.3
ʶҹ��Ѵ������-�ҧ�С�,1/10/2022 18:00,3.6,5961.7,26.0
ʶҹ��Ѵ������-�ҧ�С�,1/10/2022 18:30,3.7,5531.0,25.8
ʶҹ��Ѵ������-�ҧ�С�,1/10/2022 19:00,3.7,4965.8,25.8
ʶҹ��Ѵ������-�ҧ�С�,1/10/2022 19:30,3.7,4458.4,25.8
ʶҹ��Ѵ������-�ҧ�С�,1/10/2022 20:00,3.6,4062.5,25.7
ʶҹ��Ѵ������-�ҧ�С�,1/10/2022 20:30,3.7,3692.4,25.7
ʶҹ��Ѵ������-�ҧ�С�,1/10/2022 21:00,3.8,3510.7,25.7
ʶҹ��Ѵ������-�ҧ�С�,1/10/2022 21:30,3.9,3260.6,25.6
ʶҹ��Ѵ������-�ҧ�С�,1/10/2022 22:00,3.9,3131.2,25.6
ʶҹ��Ѵ������-�ҧ�С�,1/10/2022 22:30,3.8,3068.8,25.6
ʶҹ��Ѵ������-�ҧ�С�,1/10/2022 23:00,3.9,3038.4,25.5
ʶҹ��Ѵ������-�ҧ�С�,1/10/2022 23:30,3.9,3042.8,25.5
ʶҹ��Ѵ������-�ҧ�С�,1/11/2022 0:00,3.9,3096.7,25.5
ʶҹ��Ѵ������-�ҧ�С�,1/11/2022 0:30,3.9,3170.1,25.5
ʶҹ��Ѵ������-�ҧ�С�,1/11/2022 1:00,3.9,3192.6,25.5
ʶҹ��Ѵ������-�ҧ�С�,1/11/2022 1:30,3.8,3162.9,25.5